Location: Castifao
(42.5040°N, 9.1124°E)
Time: 15:00:17
(UTC+00:00)

Cosmos 2251 Rocket - Pass Details

Date: 23 January 2020
Orbit: 764 x 792 km, 74.0° (Epoch: 23 February)

Event Time Altitude Azimuth Distance (km) Brightness Sun altitude
Rises 18:17:42 0° 340° (NNW) 3,261 6.9 -20.6°
Reaches altitude 10° 18:20:05 10° 340° (NNW) 2,334 6.1 -21.1°
Maximum altitude 18:25:24 89° 75° (ENE) 787 3.4 -22.1°
Drops below altitude 10° 18:30:43 10° 161° (SSE) 2,336 5.9 -23.0°
Sets 18:33:06 0° 162° (SSE) 3,264 6.6 -23.5°
